Time,TemperatureF,DewpointF,PressureIn,WindDirection,WindDirectionDegrees,WindSpeedMPH,WindSpeedGustMPH,Humidity,HourlyPrecipIn,Conditions,Clouds,dailyrainin,SoftwareType,DateUTC
2009-04-20 00:00:00,62.2,49.5,28.56,WNW,292,0.0,3.0,63,0.00,CLR,CLR,0.00,WeatherDisplay:10.37,2009-04-20 07:00:00,
2009-04-20 01:00:00,62.2,49.1,28.53,WNW,292,0.0,2.0,62,0.00,CLR,CLR,0.00,WeatherDisplay:10.37,2009-04-20 08:00:00,
2009-04-20 01:05:00,62.1,49.4,28.53,WNW,292,0.0,2.0,63,0.00,CLR,CLR,0.00,WeatherDisplay:10.37,2009-04-20 08:05:00,
2009-04-20 02:00:00,61.7,48.5,28.53,WNW,292,2.0,3.0,62,0.00,CLR,CLR,0.00,WeatherDisplay:10.37,2009-04-20 09:00:00,
2009-04-20 02:05:00,61.3,48.6,28.53,WNW,292,2.0,3.0,63,0.00,CLR,CLR,0.00,WeatherDisplay:10.37,2009-04-20 09:05:00,
2009-04-20 03:00:00,61.0,49.9,28.53,WNW,292,1.0,3.0,67,0.00,CLR,CLR,0.00,WeatherDisplay:10.37,2009-04-20 10:00:00,
2009-04-20 03:05:00,61.0,49.9,28.53,WNW,292,2.0,3.0,67,0.00,CLR,CLR,0.00,WeatherDisplay:10.37,2009-04-20 10:05:00,
2009-04-20 04:00:00,60.8,50.2,28.50,WNW,292,2.0,3.0,68,0.00,CLR,CLR,0.00,WeatherDisplay:10.37,2009-04-20 11:00:00,
2009-04-20 04:05:00,60.6,50.4,28.50,WNW,292,1.0,2.0,69,0.00,CLR,CLR,0.00,WeatherDisplay:10.37,2009-04-20 11:05:00,
2009-04-20 05:00:00,60.8,50.2,28.50,WNW,292,2.0,3.0,68,0.00,CLR,CLR,0.00,WeatherDisplay:10.37,2009-04-20 12:00:00,
2009-04-20 05:05:00,60.8,50.2,28.50,WNW,292,1.0,3.0,68,0.00,CLR,CLR,0.00,WeatherDisplay:10.37,2009-04-20 12:05:00,
2009-04-20 06:00:00,60.4,42.2,28.50,WNW,292,0.0,3.0,51,0.00,CLR,CLR,0.00,WeatherDisplay:10.37,2009-04-20 13:00:00,
2009-04-20 06:05:00,60.6,41.9,28.50,WNW,292,0.0,3.0,50,0.00,CLR,CLR,0.00,WeatherDisplay:10.37,2009-04-20 13:05:00,
2009-04-20 07:00:00,61.0,38.4,28.53,WNW,292,2.0,3.0,43,0.00,CLR,CLR,0.00,WeatherDisplay:10.37,2009-04-20 14:00:00,
2009-04-20 07:05:00,61.7,37.7,28.53,WNW,292,2.0,3.0,41,0.00,CLR,CLR,0.00,WeatherDisplay:10.37,2009-04-20 14:05:00,
2009-04-20 08:00:00,64.9,47.8,28.53,WNW,292,1.0,3.0,54,0.00,CLR,CLR,0.00,WeatherDisplay:10.37,2009-04-20 15:00:00,
2009-04-20 08:05:00,65.3,48.2,28.53,WNW,292,0.0,2.0,54,0.00,CLR,CLR,0.00,WeatherDisplay:10.37,2009-04-20 15:05:00,
2009-04-20 09:00:00,71.2,48.2,28.53,WNW,292,0.0,0.0,44,0.00,CLR,CLR,0.00,WeatherDisplay:10.37,2009-04-20 16:00:00,
2009-04-20 09:05:00,71.6,47.3,28.53,WNW,292,0.0,2.0,42,0.00,CLR,CLR,0.00,WeatherDisplay:10.37,2009-04-20 16:05:00,
2009-04-20 10:00:00,74.2,45.5,28.53,NNE,22,0.0,3.0,36,0.00,CLR,CLR,0.00,WeatherDisplay:10.37,2009-04-20 17:00:00,
2009-04-20 10:05:00,74.5,46.5,28.53,NNE,22,0.0,3.0,37,0.00,CLR,CLR,0.00,WeatherDisplay:10.37,2009-04-20 17:05:00,
2009-04-20 11:00:00,76.1,44.9,28.56,NNE,22,0.0,2.0,33,0.00,CLR,CLR,0.00,WeatherDisplay:10.37,2009-04-20 18:00:00,
2009-04-20 12:00:00,77.9,47.3,28.56,NNW,338,0.0,2.0,34,0.00,CLR,CLR,0.00,WeatherDisplay:10.37,2009-04-20 19:00:00,
2009-04-20 12:05:00,78.3,46.8,28.56,NNW,338,0.0,3.0,33,0.00,CLR,CLR,0.00,WeatherDisplay:10.37,2009-04-20 19:05:00,
2009-04-20 13:00:00,79.7,47.3,28.53,NNW,338,0.0,0.0,32,0.00,CLR,CLR,0.00,WeatherDisplay:10.37,2009-04-20 20:00:00,
2009-04-20 13:05:00,80.1,47.5,28.53,NNW,338,0.0,0.0,32,0.00,CLR,CLR,0.00,WeatherDisplay:10.37,2009-04-20 20:05:00,
2009-04-20 14:00:00,84.9,49.1,28.53,NE,45,0.0,0.0,29,0.00,CLR,CLR,0.00,WeatherDisplay:10.37,2009-04-20 21:00:00,
2009-04-20 14:05:00,85.1,49.3,28.53,NE,45,0.0,0.0,29,0.00,CLR,CLR,0.00,WeatherDisplay:10.37,2009-04-20 21:05:00,
2009-04-20 15:00:00,84.1,46.5,28.53,NNE,27,0.0,0.0,27,0.00,CLR,CLR,0.00,WeatherDisplay:10.37,2009-04-20 22:00:00,
2009-04-20 15:05:00,83.7,46.1,28.53,North,0,0.0,3.0,27,0.00,CLR,CLR,0.00,WeatherDisplay:10.37,2009-04-20 22:05:00,
2009-04-20 16:00:00,82.1,44.8,28.53,North,0,0.0,0.0,27,0.00,CLR,CLR,0.00,WeatherDisplay:10.37,2009-04-20 23:00:00,
2009-04-20 16:05:00,82.2,43.9,28.53,North,0,0.0,0.0,26,0.00,CLR,CLR,0.00,WeatherDisplay:10.37,2009-04-20 23:05:00,
2009-04-20 17:00:00,80.6,39.3,28.50,NNW,346,0.0,3.0,23,0.00,CLR,CLR,0.00,WeatherDisplay:10.37,2009-04-21 00:00:00,
2009-04-20 17:05:00,80.6,39.4,28.50,NNW,338,0.0,3.0,23,0.00,CLR,CLR,0.00,WeatherDisplay:10.37,2009-04-21 00:05:00,
2009-04-20 18:00:00,78.6,40.9,28.50,NNW,338,0.0,0.0,26,0.00,CLR,CLR,0.00,WeatherDisplay:10.37,2009-04-21 01:00:00,
2009-04-20 18:05:00,78.4,41.7,28.50,NNW,338,0.0,0.0,27,0.00,CLR,CLR,0.00,WeatherDisplay:10.37,2009-04-21 01:05:00,
2009-04-20 19:00:00,76.3,43.4,28.50,NNW,338,0.0,0.0,31,0.00,CLR,CLR,0.00,WeatherDisplay:10.37,2009-04-21 02:00:00,
2009-04-20 19:05:00,75.9,43.1,28.50,NNW,338,0.0,0.0,31,0.00,CLR,CLR,0.00,WeatherDisplay:10.37,2009-04-21 02:05:00,
2009-04-20 19:59:00,72.9,40.4,28.50,NNW,338,0.0,2.0,31,0.00,CLR,CLR,0.00,WeatherDisplay:10.37,2009-04-21 02:59:00,
2009-04-20 20:00:00,72.3,40.8,28.50,NNW,338,0.0,2.0,32,0.00,CLR,CLR,0.00,WeatherDisplay:10.37,2009-04-21 03:00:00,
2009-04-20 20:05:00,72.5,41.0,28.50,NNW,338,0.0,0.0,32,0.00,CLR,CLR,0.00,WeatherDisplay:10.37,2009-04-21 03:05:00,
2009-04-20 21:00:00,73.6,40.2,28.50,WNW,292,0.0,3.0,30,0.00,CLR,CLR,0.00,WeatherDisplay:10.37,2009-04-21 04:00:00,
2009-04-20 21:05:00,73.6,40.2,28.50,WNW,292,0.0,0.0,30,0.00,CLR,CLR,0.00,WeatherDisplay:10.37,2009-04-21 04:05:00,
2009-04-20 22:00:00,72.0,38.0,28.53,WNW,292,0.0,0.0,29,0.00,CLR,CLR,0.00,WeatherDisplay:10.37,2009-04-21 05:00:00,
2009-04-20 22:04:00,72.5,38.4,28.50,WNW,292,0.0,3.0,29,0.00,CLR,CLR,0.00,WeatherDisplay:10.37,2009-04-21 05:04:00,
2009-04-20 22:59:00,70.9,36.1,28.50,WNW,292,0.0,2.0,28,0.00,CLR,CLR,0.00,WeatherDisplay:10.37,2009-04-21 05:59:00,
2009-04-20 23:00:00,69.9,38.6,28.50,WNW,292,0.0,2.0,32,0.00,CLR,CLR,0.00,WeatherDisplay:10.37,2009-04-21 06:00:00,
2009-04-20 23:05:00,70.7,36.0,28.50,WNW,292,0.0,2.0,28,0.00,CLR,CLR,0.00,WeatherDisplay:10.37,2009-04-21 06:05:00,